STARLINK-3130, 49437

Orbit data source: Space-Track

STARLINK-3130, 49437 is a payload satellite owned by SpaceX/Seattle (US) in LEO that was launched on Sat, 13 Nov 2021 UTC via an FALCON 9 launch vehicle from the Air Force Eastern Test Range (AFETR). Payload-class satellites include a variety of spacecraft equipped with specific instruments for various scientific and technological missions. These include communications satellites like Starlink; space stations such as the ISS; scientific satellites like the Hubble; Earth observation satellites from companies like Planet Labs, Umbra, and HawkEye 360; GPS; miniature CubeSats for education and research; and military/defense satellites.

Loading next visibility...
Identifier
49437, 2021-104AF
Orbit
LEO
Country
Flag of USUS
Related business
Manufacturer
SpaceX/Seattle
Mission
Operational Commercial Communications
Bus & Motor
STARLINK, Unknown motor
Mass
290 kg wet, ~270 kg dry
Launch date (UTC)
2021-11-13 (5 years ago)
Launch vehicle
FALCON 9
Launch site
Air Force Eastern Test Range (AFETR)
Object type
Payload
Rocket body
Debris
Shape & HBR
Box + 1 Pan, 10.1 m
Radar Cross Section
13.562 m², Large (>1 m²)

Expand to show TLE details & history
Last TLE update: 1 week ago

TLE from 1 week ago
0 STARLINK-3130
1 49437U 21104AF  26154.27752471  .00000970  00000-0  79015-4 0  9990
2 49437  53.1825 184.8852 0001416 131.4583 228.6531 15.08848579251837
Epoch: 2026-06-03T06:39Z
TLE epoch observation values (Epoch: 2026-06-03T06:39:38.134Z)
Latitude
-0°
Longitude
-166.76214°
Altitude
541.258 km
Speed
7.593 km/s
True Right ascension
12h 19m 32s
True Declination
0° 00' 00"
Sunlit
Object was in daylight at epoch
Visualization orbit readout
Latitude
Unknown
Longitude
Unknown
Altitude
Unknown
Speed
Unknown
Apparent Right ascension
Unknown
Apparent Declination
Unknown
Sunlit
N/A
Visualization observer readout
Local Sidereal Time
16:14:10
Azimuth
Unknown
Elevation
Unknown
Doppler factor
Unknown
Orbital elements
Apogee altitude
540.947 km
Perigee altitude
538.988 km
Semi-major axis
6,918.105 km
Eccentricity
0.00014
Inclination
53.1825°
RAAN
184.8852°
Arg. of periapsis
131.4583°
True anomaly
228.64092°
Mean anomaly
228.6531°
Eccentric anomaly
228.64701°
Mean motion
3.77192 °/min
Orbital period
95.44 mins
BSTAR
0.000079015
Loading maneuver chart data...
Computing Atmospheric mass density...
Loading historical data...
Loading historical data...
Loading historical data...
Loading historical data...
Loading historical data...
Loading historical data...
Loading historical data...

Documentation

Showing up to 5 results
|